This is the latest recevied weather packets stored in our database for station/object K6GMW. If no packets are shown the sender has not sent any weather packets the latest 1 day(s).
| Time | Temp. | Humidity | Pressure | Rain* | Wind** | Luminosity | Snow |
|---|---|---|---|---|---|---|---|
| 1778075677 | 15° C | 84% | 1013.6 hPa | 0 mm | - | 108 W/m² | - |
| 1778074766 | 15° C | 83% | 1013.4 hPa | 0 mm | - | 76 W/m² | - |
| 1778074463 | 15° C | 84% | 1013.4 hPa | 0 mm | - | 96 W/m² | - |
| 1778074160 | 15° C | 83% | 1013.6 hPa | 0 mm | - | 65 W/m² | - |
| 1778073857 | 15.56° C | 84% | 1013.2 hPa | 0 mm | - | 81 W/m² | - |
| 1778072948 | 15.56° C | 85% | 1013.2 hPa | 0 mm | - | 51 W/m² | - |
| 1778072644 | 15.56° C | 85% | 1013 hPa | 0 mm | - | 42 W/m² | - |
| 1778071435 | 15.56° C | 86% | 1012.5 hPa | 0 mm | - | 51 W/m² | - |
| 1778071133 | 15.56° C | 86% | 1012.5 hPa | 0 mm | - | 32 W/m² | - |
| 1778070831 | 16.11° C | 86% | 1012.4 hPa | 0 mm | - | 41 W/m² | - |
| 1778070528 | 16.11° C | 86% | 1012.5 hPa | 0 mm | - | 34 W/m² | - |
| 1778069620 | 16.11° C | 86% | 1011.9 hPa | 0 mm | - | 22 W/m² | - |
| 1778069317 | 16.11° C | 85% | 1012 hPa | 0 mm | - | 22 W/m² | - |
| 1778069015 | 16.11° C | 85% | 1012 hPa | 0 mm | - | 20 W/m² | - |
| 1778068410 | 16.11° C | 84% | 1011.7 hPa | 6.1 mm | - | 14 W/m² | - |
| 1778067201 | 16.67° C | 84% | 1011.4 hPa | 0 mm | - | 2 W/m² | - |
| 1778066897 | 16.67° C | 84% | 1011.1 hPa | 0 mm | - | 1 W/m² | - |
| 1778065990 | 16.67° C | 84% | 1010.9 hPa | 0 mm | - | 0 W/m² | - |
| 1778065384 | 16.67° C | 84% | 1010.8 hPa | 0 mm | - | 0 W/m² | - |
| 1778064475 | 16.67° C | 84% | 1010.6 hPa | 0 mm | - | 0 W/m² | - |
| 1778063567 | 16.67° C | 86% | 1010.8 hPa | 0 mm | - | 0 W/m² | - |
| 1778061450 | 17.22° C | 85% | 1010.2 hPa | 0 mm | - | 0 W/m² | - |
| 1778061146 | 17.78° C | 84% | 1010.1 hPa | 0 mm | - | 0 W/m² | - |
| 1778060541 | 17.78° C | 83% | 1009.8 hPa | 0 mm | - | 0 W/m² | - |
| 1778060240 | 18.33° C | 83% | 1010.2 hPa | 0 mm | - | 0 W/m² | - |
* Rain latest hour (hover to see other rain measurements)
** Current wind speed in m/s (hover to see current wind gust speed)